Powrót do katalogu

BREEZE-M DEB

AktywnyMEO
NORAD 62722·DEBRIS·🇷🇺 Russia

Wystrzelony Jan 28, 2008 z Baikonur Cosmodrome

Loading…

Następne Przeloty (najbliższe 24 godziny)

TLE

ŚwieżeSource: Space-Track

Epoka: Sep 13, 2026, 13:39 UTC

1 62722U 08003D   26256.56896802 -.00000007  00000-0  00000-0 0  9993
2 62722  11.4647  25.8026 0891128 183.6525 175.7389  1.01927083 13674

Śledź BREEZE-M DEB w czasie rzeczywistym z AllMySat

Download on the App Store